Regional Weather Roundup
Issued by NWS

Home | Current Version | Previous Version | Text Only | Print | Product List | Glossary Off
Versions: 1 2 3 4 5 6 7 8 9 10 11 12 13 14 15 16 17 18 19 20 21 22 23 24 25 26 27 28 29 30 31 32 33 34 35 36 37 38 39 40 41 42 43 44 45 46 47 48 49 50

000
ASUS43 KLOT 290506
RWRIL

ILLINOIS REGIONAL WEATHER ROUNDUP
NATIONAL WEATHER SERVICE CHICAGO/ROMEOVILLE IL
1200 AM CDT TUE JUL 29 2014

NOTE: "FAIR" INDICATES FEW OR NO CLOUDS BELOW 12,000 FEET WITH NO
SIGNIFICANT WEATHER AND/OR OBSTRUCTIONS TO VISIBILITY.

* THESE STATIONS ARE NOT UNDER NWS QUALITY CONTROL. THEY ALSO MAY NOT
  REPORT WEATHER SUCH AS PRECIPITATION OR FOG.

ILZ001-002-007-009-015-016-024-290600-
NORTHWEST ILLINOIS

CITY           SKY/WX    TMP DP  RH WIND       PRES   REMARKS
MOLINE         CLEAR     57  52  83 CALM      30.11S
STERLING*      CLEAR     57  50  77 NW5       30.10S
SAVANNA*       CLEAR     56  54  91 CALM      30.11R
$$

ILZ003-004-008-010-011-017-018-290600-
NORTH CENTRAL ILLINOIS

CITY           SKY/WX    TMP DP  RH WIND       PRES   REMARKS
ROCKFORD       MOCLDY    63  52  67 NW8       30.10S
FREEPORT*      CLEAR     56  52  86 W5        30.12R
DE KALB*       MOCLDY    60  52  75 NW9       30.08S
PERU*          CLEAR     59  53  82 W8        30.10S
$$

ILZ005-006-012>014-019>023-290600-
NORTHEAST ILLINOIS

CITY           SKY/WX    TMP DP  RH WIND       PRES   REMARKS
CHICAGO-OHARE  MOCLDY    62  50  64 S3        30.05S
CHICAGO-MIDWAY MOCLDY    63  51  65 SW5       30.05F
AURORA         PTCLDY    56  51  84 W6        30.07F
LANSING*       CLOUDY    57  52  83 CALM      30.06F
WAUKEGAN       CLOUDY    60  51  72 CALM      30.05S
DUPAGE AIRPORT MOCLDY    62  53  72 W6        30.05F
KANKAKEE*      PTCLDY    53  51  94 CALM      30.08S
WHEELING       CLOUDY    65  52  62 CALM      30.06F
MORRIS*        CLEAR     57  54  88 W6        30.06F
ROMEOVILLE*    CLEAR     60  52  76 W5        30.07S
NORTHERLY ISL    N/A     63  50  62 S2          N/A
$$

LMZ740>746-290600-
SOUTHERN LAKE MICHIGAN

STATION/POSITION SKY/WX   TEMP    WIND        PRES    VSBY  WAVE
                          AIR SEA DIR/SP/G                  HT/PER
                          (F)     (DEG/KT/KT) (MB)    (MI)  (FT/S)
SOUTHERN BUOY              59 60  250/  4/  6 1017.7F         2/ 6
WAUKEGAN HARBOR            61     180/  4/  5   N/A
HARRISON CRIB              63     180/  6/  7   N/A
BURNHAM HARBOR             63     190/  3/  5   N/A
CALUMET HARBOR             62     190/  2/  3 1016.5F
MICHIGAN CITY              64     350/  8/ 10   N/A
MICHIGAN CITY 6N           65 67   10/  6/ 10   N/A           4/ 7
ST. JOSEPH                 62 66  340/  6/ 10   N/A           3/ 6
$$

ILZ025>027-034>036-040-047-049-050-058-095>099-290600-
WEST-CENTRAL ILLINOIS

CITY           SKY/WX    TMP DP  RH WIND       PRES   REMARKS
QUINCY         CLEAR     61  56  83 CALM      30.14S
GALESBURG*     CLEAR     55  53  95 CALM      30.12S
MACOMB*        CLEAR     54  53  95 CALM      30.15S
JACKSONVILLE*  CLEAR     57  55  94 CALM      30.14S
PITTSFIELD*    CLEAR     58  55  89 CALM      30.15R
$$

ILZ028>032-037-038-041>044-048-051>054-059>061-290600-
CENTRAL ILLINOIS

CITY           SKY/WX    TMP DP  RH WIND       PRES   REMARKS
PONTIAC        CLEAR     57  55  94 W3        30.08F
DECATUR        CLEAR     58  52  80 NW3       30.11R
PEORIA         CLEAR     60  53  77 CALM      30.11S
LACON*         CLEAR     56  52  89 CALM      30.09S
LINCOLN*       CLEAR     60  55  81 CALM      30.10R
SPRINGFIELD    CLEAR     56  54  93 W3        30.12F
TAYLORVILLE    CLEAR     55  54  94 CALM      30.12R
$$

ILZ033-039-045-046-055>057-062-063-290600-
EAST-CENTRAL ILLINOIS

CITY           SKY/WX    TMP DP  RH WIND       PRES   REMARKS
CHAMPAIGN      CLEAR     55  53  93 W6        30.10R
DANVILLE*      CLEAR     51  50  95 CALM      30.06S
MATTOON        CLEAR     56  50  80 W6        30.10R
PARIS*         CLEAR     51  50  97 CALM      30.10R
$$

ILZ079-100>102-290600-
SOUTHWEST ILLINOIS

CITY           SKY/WX    TMP DP  RH WIND       PRES   REMARKS
ALTON          CLEAR     57  57  98 CALM      30.13S
BELLEVILLE     CLEAR     62  54  77 N3        30.11S
CAHOKIA*       CLEAR     62  54  74 N7        30.12S
SPARTA*        CLEAR     61  54  77 CALM      30.12S
$$

ILZ064>066-069>071-074>076-080>082-084>086-088>090-092>094-290600-
SOUTH-CENTRAL ILLINOIS

CITY           SKY/WX    TMP DP  RH WIND       PRES   REMARKS
CARBONDALE     CLEAR     61  55  81 CALM      30.11R
CAIRO*         CLEAR     67  59  76 N3        30.10R
MARION         CLEAR     61  57  88 CALM      30.11R
MT. VERNON     CLEAR     57  52  82 CALM      30.12R
CENTRALIA*     CLEAR     56  52  88 N3        30.11S
SALEM*         CLEAR    N/A N/A N/A CALM      30.12R
METROPOLIS*    CLEAR     60  55  81 CALM      30.09R
$$

ILZ067-068-072-073-078-083-087-091-290600-
SOUTHEAST ILLINOIS

CITY           SKY/WX    TMP DP  RH WIND       PRES   REMARKS
LAWRENCEVILLE  CLEAR     58  51  78 W3        30.10R
FLORA*         CLEAR     59  52  77 CALM      30.11S
FAIRFIELD*     CLEAR     57  55  94 CALM      30.10S
HARRISBURG*    CLEAR     62  55  78 N5        30.11R
ROBINSON*      CLEAR     54  52  95 W3        30.10S
CARMI*         CLEAR     61  57  88 N3        30.09S
$$

ABBREVIATIONS USED IN REMARKS
   TC - TEMPERATURE IN CELSIUS
  WCI - WIND CHILL INDEX
   HX - HEAT INDEX
  VSB - VISIBILITY
$$



USA.gov is the U.S. government's official web portal to all federal, state and local government web resources and services.